Change the Weather History Date:

Saturday, February 22, 2014

  Actual Average Record
Temperature  
Mean Temperature 43 °F 36 °F  
Max Temperature 62 °F 52 °F 77 °F (1982)
Min Temperature 23 °F 21 °F -3 °F (1960)
Degree Days  
Heating Degree Days 22 29  
Month to date heating degree days 700 676  
Since 1 July heating degree days 3858 3958  
Cooling Degree Days 0 0  
Month to date cooling degree days 0 0  
Year to date cooling degree days 0 0  
Moisture  
Dew Point 6 °F    
Average Humidity 25    
Maximum Humidity 40    
Minimum Humidity 9    
Precipitation  
Precipitation 0.00 in 0.02 in 0.15 in (2015)
Month to date precipitation T 0.36  
Year to date precipitation 0.09 0.76  
Sea Level Pressure  
Sea Level Pressure 29.80 in    
Wind  
Wind Speed 11 mph (West)    
Max Wind Speed 26 mph    
Max Gust Speed 33 mph    
Visibility 10 miles    
Events      
T = Trace of Precipitation, MM = Missing Value Source: NWS Daily Summary

Daily Weather History Graph

Daily Weather History Graph

Search for Another Location

Airport or City:

Trip Planner

Search our weather history database for the weather conditions in past years. The results will help you decide how hot, cold, wet, or windy it might be!

Date:

Astronomy

Feb. 22, 2014 Rise Set
Actual Time 6:37 AM MST 5:44 PM MST
Civil Twilight 6:11 AM MST 6:10 PM MST
Nautical Twilight 5:41 AM MST 6:41 PM MST
Astronomical Twilight 5:10 AM MST 7:11 PM MST
Moon 12:32 AM MST (2/22) 11:00 AM MST (2/22)
Length of Visible Light 11h 59m
Length of Day
11h 06m
Waning Gibbous, 49% of the Moon is Illuminated
Feb 22
Waning Gibbous
Mar 1
New
Mar 8
First Quarter
Mar 16
Full
Mar 23
Last Quarter

Hourly Weather History & Observations

Time (MST) Temp. Windchill Dew Point Humidity Pressure Visibility Wind Dir Wind Speed Gust Speed Precip Events Conditions
12:54 AM 32.0 °F 21.6 °F 3.9 °F 31% 29.82 in 10.0 mi WSW 15.0 mph - N/A   Clear
1:54 AM 30.0 °F 19.1 °F 3.0 °F 32% 29.80 in 10.0 mi WSW 15.0 mph - N/A   Clear
2:54 AM 27.0 °F 18.7 °F 3.0 °F 36% 29.81 in 10.0 mi West 8.1 mph - N/A   Clear
3:54 AM 27.0 °F 17.3 °F 3.9 °F 37% 29.81 in 10.0 mi West 10.4 mph - N/A   Clear
4:54 AM 28.9 °F 18.6 °F 3.9 °F 35% 29.82 in 10.0 mi West 12.7 mph - N/A   Clear
5:54 AM 26.1 °F 17.6 °F 3.9 °F 39% 29.86 in 10.0 mi West 8.1 mph - N/A   Clear
6:54 AM 24.1 °F 14.4 °F 3.9 °F 42% 29.89 in 10.0 mi West 9.2 mph - N/A   Clear
7:54 AM 33.1 °F 28.7 °F 8.1 °F 35% 29.89 in 10.0 mi West 4.6 mph - N/A   Clear
8:54 AM 41.0 °F 39.0 °F 9.0 °F 27% 29.86 in 10.0 mi SE 3.5 mph - N/A   Clear
9:54 AM 46.9 °F - 6.1 °F 19% 29.81 in 10.0 mi ENE 5.8 mph - N/A   Clear
10:54 AM 51.1 °F - 8.1 °F 18% 29.79 in 10.0 mi ESE 4.6 mph - N/A   Clear
11:54 AM 55.0 °F - 9.0 °F 16% 29.75 in 10.0 mi ENE 6.9 mph - N/A   Clear
12:54 PM 57.0 °F - 6.1 °F 13% 29.71 in 10.0 mi Variable 4.6 mph - N/A   Clear
1:54 PM 57.9 °F - 3.9 °F 11% 29.70 in 10.0 mi North 4.6 mph - N/A   Clear
2:54 PM 61.0 °F - -0.0 °F 9% 29.69 in 10.0 mi West 23.0 mph 28.8 mph N/A   Clear
3:54 PM 59.0 °F - -0.9 °F 9% 29.70 in 10.0 mi West 18.4 mph - N/A   Clear
4:54 PM 55.9 °F - 3.0 °F 12% 29.72 in 10.0 mi West 23.0 mph 33.4 mph N/A   Clear
5:54 PM 51.1 °F - 5.0 °F 15% 29.79 in 10.0 mi West 12.7 mph - N/A   Clear
6:54 PM 48.9 °F - 7.0 °F 18% 29.82 in 10.0 mi West 13.8 mph - N/A   Clear
7:54 PM 45.0 °F 39.3 °F 9.0 °F 23% 29.82 in 10.0 mi West 11.5 mph - N/A   Clear
8:54 PM 37.0 °F 28.5 °F 7.0 °F 29% 29.83 in 10.0 mi WSW 13.8 mph - N/A   Clear
9:54 PM 41.0 °F 31.6 °F 9.0 °F 27% 29.81 in 10.0 mi WSW 20.7 mph - N/A   Clear
10:54 PM 36.0 °F 28.0 °F 9.0 °F 33% 29.83 in 10.0 mi WSW 11.5 mph - N/A   Clear
11:54 PM 34.0 °F 28.0 °F 9.0 °F 35% 29.85 in 10.0 mi West 6.9 mph - N/A   Clear